Find Kosmos-2303

NORAD ID: 23445 Int'l Des: 1994-086 Owner: VKS Country: RU operational
LEOCIRCULARPOLAR

Current View

Loading 3D Globe...

About Kosmos-2303

Description loading...

Upcoming Passes

Passes for default location (London). Set your location on the main map for personalized predictions.

Altitude History

Loading altitude history...

Two-Line Element Set

1 23445U 94086E 26150.02908174 .00000053 00000-0 24168-3 0 9992
2 23445 82.5759 357.5759 0010415 247.5698 265.6518 12.60561960445696
Epoch: May 30, 2026 • Age: 8 hours

Current Status

Altitude 1428.4 km
Velocity 7.15 km/s
Sub-Earth Point -39.67°S, 165.61°E
Launch Date Dec 26, 1994
Age 31.4 years
Type other

Technical Details

Classification Payload
Mass 225.00 kg
Dry Mass 225.00 kg
Total Mass 225.00 kg
Length 1.60 m
Diameter 0.80 m
Span 7.00 m
Shape Cyl + Ant
Manufacturer NPOPMR
Bus Type Strela-3
Phase Status In Orbit
Owner/State VKS/RU

Most Searched